Terug naar catalogus

STARLINK-35809

ActiefCommunicatieVLEO
NORAD 66373·PAYLOAD·🇺🇸 United States

Gelanceerd Nov 6, 2025 vanaf Vandenberg Space Force Base

Loading…

Volgende Passages (komende 24 uur)

TLE

VersSource: CelesTrak SupGP

Epoch: Sep 14, 2026, 23:21 UTC

1 66373C 25254AB  26257.97340278  .00040194  00000+0  11877-2 0  2575
2 66373  53.1589  69.6877 0001066  78.1179 347.6395 15.34367572    18

Volg STARLINK-35809 in realtime met AllMySat

Download on the App Store